Location: Cisewo
(53.3833°N, 14.9000°E)
Time: 05:16:07
(UTC+00:00)

NOAA 18 - Pass Details

Date: 21 September 2021
Orbit: 841 x 860 km, 99.0° (Epoch: 17 October)

Event Time Altitude Azimuth Distance (km) Brightness Sun altitude
Exits shadow 18:49:21 23° 90° (E) 1,710 6.3 -16.5°
Maximum altitude 18:51:15 29° 57° (ENE) 1,512 6.2 -16.7°
Drops below altitude 10° 18:55:53 10° 359° (N) 2,483 8.0 -17.4°
Sets 18:58:32 0° 349° (N) 3,426 8.9 -17.7°
